Time,TemperatureF,DewpointF,PressureIn,WindDirection,WindDirectionDegrees,WindSpeedMPH,WindSpeedGustMPH,Humidity,HourlyPrecipIn,Conditions,Clouds,dailyrainin,SolarRadiationWatts/m^2,SoftwareType,DateUTC
2017-09-24 00:01:00,71.1,66.0,30.02,East,90,0.0,0.0,84,0.00,,,0.00,0.0,meteohub,2017-09-24 05:01:00,
2017-09-24 00:06:00,71.1,66.0,30.01,East,90,0.0,0.0,84,0.00,,,0.00,0.0,meteohub,2017-09-24 05:06:00,
2017-09-24 00:11:00,70.9,66.2,30.02,East,90,0.0,0.0,85,0.00,,,0.00,0.0,meteohub,2017-09-24 05:11:00,
2017-09-24 00:16:00,70.7,66.0,30.02,East,90,0.0,0.0,85,0.00,,,0.00,0.0,meteohub,2017-09-24 05:16:00,
2017-09-24 00:21:00,70.5,65.8,30.02,East,90,0.0,0.0,85,0.00,,,0.00,0.0,meteohub,2017-09-24 05:21:00,
2017-09-24 00:26:00,70.3,65.7,30.02,East,90,0.0,0.0,85,0.00,,,0.00,0.0,meteohub,2017-09-24 05:26:00,
2017-09-24 00:31:00,70.3,65.7,30.02,East,90,0.0,0.0,85,0.00,,,0.00,0.0,meteohub,2017-09-24 05:31:00,
2017-09-24 00:36:00,70.3,66.0,30.02,East,90,0.0,0.0,86,0.00,,,0.00,0.0,meteohub,2017-09-24 05:36:00,
2017-09-24 00:41:00,70.2,65.8,30.02,East,90,0.0,0.0,86,0.00,,,0.00,0.0,meteohub,2017-09-24 05:41:00,
2017-09-24 00:46:00,70.0,65.3,30.02,East,90,0.0,0.0,85,0.00,,,0.00,0.0,meteohub,2017-09-24 05:46:00,
2017-09-24 00:51:00,69.6,65.3,30.02,East,90,0.0,0.0,86,0.00,,,0.00,0.0,meteohub,2017-09-24 05:51:00,
2017-09-24 00:56:00,69.6,65.3,30.02,East,90,0.0,0.0,86,0.00,,,0.00,0.0,meteohub,2017-09-24 05:56:00,
2017-09-24 01:01:00,69.4,65.1,30.02,East,90,0.0,0.0,86,0.00,,,0.00,0.0,meteohub,2017-09-24 06:01:00,
2017-09-24 01:06:00,69.3,64.9,30.02,East,90,0.0,0.0,86,0.00,,,0.00,0.0,meteohub,2017-09-24 06:06:00,
2017-09-24 01:11:00,69.1,64.8,30.02,East,90,0.0,0.0,86,0.00,,,0.00,0.0,meteohub,2017-09-24 06:11:00,
2017-09-24 01:16:00,69.1,64.8,30.02,East,90,0.0,0.0,86,0.00,,,0.00,0.0,meteohub,2017-09-24 06:16:00,
2017-09-24 01:21:00,68.7,64.4,30.02,East,90,0.0,0.0,86,0.00,,,0.00,0.0,meteohub,2017-09-24 06:21:00,
2017-09-24 01:26:00,68.7,64.8,30.02,East,90,0.0,0.0,87,0.00,,,0.00,0.0,meteohub,2017-09-24 06:26:00,
2017-09-24 01:31:00,68.5,64.6,30.02,East,90,0.0,0.0,87,0.00,,,0.00,0.0,meteohub,2017-09-24 06:31:00,
2017-09-24 01:36:00,68.4,64.4,30.02,East,90,0.0,1.0,87,0.00,,,0.00,0.0,meteohub,2017-09-24 06:36:00,
2017-09-24 01:41:00,68.2,64.2,30.02,East,90,0.0,1.0,87,0.00,,,0.00,0.0,meteohub,2017-09-24 06:41:00,
2017-09-24 01:46:00,68.0,64.0,30.03,East,90,0.0,0.0,87,0.00,,,0.00,0.0,meteohub,2017-09-24 06:46:00,
2017-09-24 01:51:00,67.8,63.9,30.03,East,90,0.0,0.0,87,0.00,,,0.00,0.0,meteohub,2017-09-24 06:51:00,
2017-09-24 01:56:00,67.6,63.7,30.03,East,90,0.0,0.0,87,0.00,,,0.00,0.0,meteohub,2017-09-24 06:56:00,
2017-09-24 02:01:00,67.6,63.7,30.03,East,90,0.0,0.0,87,0.00,,,0.00,0.0,meteohub,2017-09-24 07:01:00,
2017-09-24 02:06:00,67.5,63.9,30.03,East,90,0.0,0.0,88,0.00,,,0.00,0.0,meteohub,2017-09-24 07:06:00,
2017-09-24 02:11:00,67.5,63.9,30.03,East,90,0.0,0.0,88,0.00,,,0.00,0.0,meteohub,2017-09-24 07:11:00,
2017-09-24 02:17:00,67.3,63.7,30.02,East,90,0.0,0.0,88,0.00,,,0.00,0.0,meteohub,2017-09-24 07:17:00,
2017-09-24 02:22:00,66.9,63.3,30.02,East,90,0.0,0.0,88,0.00,,,0.00,0.0,meteohub,2017-09-24 07:22:00,
2017-09-24 02:27:00,66.9,63.3,30.02,East,90,0.0,0.0,88,0.00,,,0.00,0.0,meteohub,2017-09-24 07:27:00,
2017-09-24 02:32:00,66.9,63.3,30.02,East,90,0.0,0.0,88,0.00,,,0.00,0.0,meteohub,2017-09-24 07:32:00,
2017-09-24 02:37:00,66.9,63.3,30.02,East,90,0.0,0.0,88,0.00,,,0.00,0.0,meteohub,2017-09-24 07:37:00,
2017-09-24 02:42:00,66.9,63.5,30.03,East,90,0.0,0.0,89,0.00,,,0.00,0.0,meteohub,2017-09-24 07:42:00,
2017-09-24 02:47:00,66.9,63.5,30.03,East,90,0.0,0.0,89,0.00,,,0.00,0.0,meteohub,2017-09-24 07:47:00,
2017-09-24 02:48:00,66.9,63.5,30.03,East,90,0.0,0.0,89,0.00,,,0.00,0.0,meteohub,2017-09-24 07:48:00,
2017-09-24 02:53:00,66.7,63.3,30.03,East,90,0.0,0.0,89,0.00,,,0.00,0.0,meteohub,2017-09-24 07:53:00,
2017-09-24 02:58:00,66.6,63.1,30.03,East,90,0.0,0.0,89,0.00,,,0.00,0.0,meteohub,2017-09-24 07:58:00,
2017-09-24 03:03:00,66.6,63.1,30.03,East,90,0.0,0.0,89,0.00,,,0.00,0.0,meteohub,2017-09-24 08:03:00,
2017-09-24 03:08:00,66.6,63.1,30.03,East,90,1.0,0.0,89,0.00,,,0.00,0.0,meteohub,2017-09-24 08:08:00,
2017-09-24 03:13:00,66.4,63.0,30.03,East,90,0.0,0.0,89,0.00,,,0.00,0.0,meteohub,2017-09-24 08:13:00,
2017-09-24 03:19:00,66.0,62.6,30.03,East,90,0.0,1.0,89,0.00,,,0.00,0.0,meteohub,2017-09-24 08:19:00,
2017-09-24 03:24:00,65.8,62.4,30.03,East,90,0.0,1.0,89,0.00,,,0.00,0.0,meteohub,2017-09-24 08:24:00,
2017-09-24 03:29:00,65.8,62.4,30.03,East,90,0.0,0.0,89,0.00,,,0.00,0.0,meteohub,2017-09-24 08:29:00,
2017-09-24 03:34:00,65.8,62.8,30.03,East,90,0.0,0.0,90,0.00,,,0.00,0.0,meteohub,2017-09-24 08:34:00,
2017-09-24 03:39:00,65.7,62.6,30.03,East,90,0.0,0.0,90,0.00,,,0.00,0.0,meteohub,2017-09-24 08:39:00,
2017-09-24 03:44:00,65.5,62.4,30.03,East,90,0.0,0.0,90,0.00,,,0.00,0.0,meteohub,2017-09-24 08:44:00,
2017-09-24 03:49:00,65.1,61.9,30.03,East,90,0.0,1.0,89,0.00,,,0.00,0.0,meteohub,2017-09-24 08:49:00,
2017-09-24 03:54:00,64.9,61.9,30.03,East,90,0.0,1.0,90,0.00,,,0.00,0.0,meteohub,2017-09-24 08:54:00,
2017-09-24 03:59:00,64.8,61.7,30.03,East,90,0.0,1.0,90,0.00,,,0.00,0.0,meteohub,2017-09-24 08:59:00,
2017-09-24 04:04:00,64.6,61.5,30.03,East,90,0.0,0.0,90,0.00,,,0.00,0.0,meteohub,2017-09-24 09:04:00,
2017-09-24 04:09:00,64.6,61.5,30.03,East,90,0.0,0.0,90,0.00,,,0.00,0.0,meteohub,2017-09-24 09:09:00,
2017-09-24 04:14:00,64.6,61.5,30.03,East,90,0.0,0.0,90,0.00,,,0.00,0.0,meteohub,2017-09-24 09:14:00,
2017-09-24 04:19:00,64.4,61.3,30.03,East,90,0.0,0.0,90,0.00,,,0.00,0.0,meteohub,2017-09-24 09:19:00,
2017-09-24 04:24:00,64.4,61.3,30.03,East,90,0.0,0.0,90,0.00,,,0.00,0.0,meteohub,2017-09-24 09:24:00,
2017-09-24 04:29:00,64.2,61.2,30.03,East,90,0.0,0.0,90,0.00,,,0.00,0.0,meteohub,2017-09-24 09:29:00,
2017-09-24 04:34:00,64.2,61.2,30.03,East,90,0.0,0.0,90,0.00,,,0.00,0.0,meteohub,2017-09-24 09:34:00,
2017-09-24 04:39:00,64.2,61.5,30.03,East,90,0.0,0.0,91,0.00,,,0.00,0.0,meteohub,2017-09-24 09:39:00,
2017-09-24 04:44:00,64.0,61.3,30.03,East,90,0.0,0.0,91,0.00,,,0.00,0.0,meteohub,2017-09-24 09:44:00,
2017-09-24 04:49:00,64.0,61.3,30.03,East,90,0.0,0.0,91,0.00,,,0.00,0.0,meteohub,2017-09-24 09:49:00,
2017-09-24 04:54:00,63.9,61.2,30.03,East,90,0.0,0.0,91,0.00,,,0.00,0.0,meteohub,2017-09-24 09:54:00,
2017-09-24 04:59:00,63.7,61.0,30.03,East,90,0.0,0.0,91,0.00,,,0.00,0.0,meteohub,2017-09-24 09:59:00,
2017-09-24 05:09:00,63.5,60.8,30.03,East,90,0.0,0.0,91,0.00,,,0.00,0.0,meteohub,2017-09-24 10:09:00,
2017-09-24 05:14:00,63.3,60.6,30.03,East,90,0.0,0.0,91,0.00,,,0.00,0.0,meteohub,2017-09-24 10:14:00,
2017-09-24 05:19:00,63.3,60.6,30.03,East,90,0.0,0.0,91,0.00,,,0.00,0.0,meteohub,2017-09-24 10:19:00,
2017-09-24 05:24:00,63.3,60.6,30.03,East,90,0.0,0.0,91,0.00,,,0.00,0.0,meteohub,2017-09-24 10:24:00,
2017-09-24 05:29:00,63.1,60.4,30.03,East,90,0.0,0.0,91,0.00,,,0.00,0.0,meteohub,2017-09-24 10:29:00,
2017-09-24 05:35:00,63.1,60.4,30.03,East,90,0.0,0.0,91,0.00,,,0.00,0.0,meteohub,2017-09-24 10:35:00,
2017-09-24 05:40:00,63.0,60.3,30.04,East,90,0.0,0.0,91,0.00,,,0.00,0.0,meteohub,2017-09-24 10:40:00,
2017-09-24 05:45:00,62.8,60.1,30.04,East,90,0.0,0.0,91,0.00,,,0.00,0.0,meteohub,2017-09-24 10:45:00,
2017-09-24 05:55:00,63.0,60.6,30.04,East,90,0.0,0.0,92,0.00,,,0.00,0.0,meteohub,2017-09-24 10:55:00,
2017-09-24 06:00:00,63.1,60.8,30.04,East,90,0.0,0.0,92,0.00,,,0.00,0.0,meteohub,2017-09-24 11:00:00,
2017-09-24 06:05:00,63.3,61.0,30.04,East,90,0.0,0.0,92,0.00,,,0.00,0.0,meteohub,2017-09-24 11:05:00,
2017-09-24 06:09:00,63.5,61.2,30.04,East,90,0.0,0.0,92,0.00,,,0.00,0.0,meteohub,2017-09-24 11:09:00,
2017-09-24 06:14:00,63.7,61.3,30.04,East,90,0.0,0.0,92,0.00,,,0.00,0.0,meteohub,2017-09-24 11:14:00,
2017-09-24 06:19:00,63.7,61.3,30.04,East,90,0.0,0.0,92,0.00,,,0.00,0.0,meteohub,2017-09-24 11:19:00,
2017-09-24 06:24:00,63.3,61.0,30.04,East,90,0.0,0.0,92,0.00,,,0.00,0.0,meteohub,2017-09-24 11:24:00,
2017-09-24 06:29:00,63.1,60.8,30.04,East,90,0.0,0.0,92,0.00,,,0.00,0.0,meteohub,2017-09-24 11:29:00,
2017-09-24 06:34:00,63.0,60.6,30.04,East,90,0.0,0.0,92,0.00,,,0.00,0.0,meteohub,2017-09-24 11:34:00,
2017-09-24 06:39:00,62.8,60.4,30.04,East,90,0.0,0.0,92,0.00,,,0.00,0.0,meteohub,2017-09-24 11:39:00,
2017-09-24 06:44:00,62.4,60.1,30.04,East,90,0.0,0.0,92,0.00,,,0.00,0.0,meteohub,2017-09-24 11:44:00,
2017-09-24 06:49:00,62.2,59.9,30.04,East,90,0.0,0.0,92,0.00,,,0.00,7.0,meteohub,2017-09-24 11:49:00,
2017-09-24 06:54:00,62.1,59.7,30.04,East,90,0.0,0.0,92,0.00,,,0.00,9.0,meteohub,2017-09-24 11:54:00,
2017-09-24 06:59:00,62.1,59.7,30.04,East,90,0.0,0.0,92,0.00,,,0.00,12.0,meteohub,2017-09-24 11:59:00,
2017-09-24 07:04:00,61.9,59.5,30.05,East,90,0.0,0.0,92,0.00,,,0.00,14.0,meteohub,2017-09-24 12:04:00,
2017-09-24 07:09:00,62.1,59.7,30.05,East,90,0.0,0.0,92,0.00,,,0.00,18.0,meteohub,2017-09-24 12:09:00,
2017-09-24 07:14:00,62.2,59.9,30.05,East,90,0.0,0.0,92,0.00,,,0.00,21.0,meteohub,2017-09-24 12:14:00,
2017-09-24 07:19:00,62.4,60.4,30.05,East,90,0.0,0.0,93,0.00,,,0.00,33.0,meteohub,2017-09-24 12:19:00,
2017-09-24 07:21:00,62.8,60.8,30.05,East,90,0.0,0.0,93,0.00,,,0.00,40.0,meteohub,2017-09-24 12:21:00,
2017-09-24 07:27:00,63.0,61.0,30.05,East,90,0.0,0.0,93,0.00,,,0.00,51.0,meteohub,2017-09-24 12:27:00,
2017-09-24 07:32:00,63.9,61.9,30.05,East,90,0.0,0.0,93,0.00,,,0.00,62.0,meteohub,2017-09-24 12:32:00,
2017-09-24 07:37:00,64.6,62.4,30.05,East,90,0.0,0.0,93,0.00,,,0.00,74.0,meteohub,2017-09-24 12:37:00,
2017-09-24 07:42:00,65.5,63.3,30.05,East,90,0.0,0.0,93,0.00,,,0.00,86.0,meteohub,2017-09-24 12:42:00,
2017-09-24 07:47:00,66.2,64.0,30.05,East,90,0.0,0.0,93,0.00,,,0.00,100.0,meteohub,2017-09-24 12:47:00,
2017-09-24 07:52:00,66.7,64.6,30.06,East,90,0.0,0.0,93,0.00,,,0.00,114.0,meteohub,2017-09-24 12:52:00,
2017-09-24 07:57:00,67.3,65.1,30.06,East,90,0.0,0.0,93,0.00,,,0.00,127.0,meteohub,2017-09-24 12:57:00,
2017-09-24 08:02:00,67.6,65.5,30.06,East,90,0.0,0.0,93,0.00,,,0.00,141.0,meteohub,2017-09-24 13:02:00,
2017-09-24 08:07:00,68.4,66.2,30.05,East,90,0.0,0.0,93,0.00,,,0.00,156.0,meteohub,2017-09-24 13:07:00,
2017-09-24 08:12:00,69.1,66.9,30.06,East,90,0.0,0.0,93,0.00,,,0.00,172.0,meteohub,2017-09-24 13:12:00,
2017-09-24 08:17:00,69.6,67.3,30.06,East,90,0.0,0.0,92,0.00,,,0.00,186.0,meteohub,2017-09-24 13:17:00,
2017-09-24 08:22:00,70.7,68.2,30.06,East,90,0.0,0.0,92,0.00,,,0.00,202.0,meteohub,2017-09-24 13:22:00,
2017-09-24 08:27:00,71.8,69.1,30.06,East,90,0.0,0.0,91,0.00,,,0.00,216.0,meteohub,2017-09-24 13:27:00,
2017-09-24 08:32:00,73.0,69.6,30.06,East,90,0.0,1.0,89,0.00,,,0.00,230.0,meteohub,2017-09-24 13:32:00,
2017-09-24 08:37:00,74.1,68.9,30.06,South,171,1.0,2.0,84,0.00,,,0.00,248.0,meteohub,2017-09-24 13:37:00,
2017-09-24 08:42:00,74.8,68.5,30.06,South,171,0.0,3.0,81,0.00,,,0.00,258.0,meteohub,2017-09-24 13:42:00,
2017-09-24 08:47:00,75.4,68.7,30.06,South,171,0.0,3.0,80,0.00,,,0.00,278.0,meteohub,2017-09-24 13:47:00,
2017-09-24 08:52:00,75.9,68.5,30.06,South,182,2.0,3.0,78,0.00,,,0.00,292.0,meteohub,2017-09-24 13:52:00,
2017-09-24 09:02:00,76.8,67.8,30.06,SSW,195,4.0,5.0,74,0.00,,,0.00,318.0,meteohub,2017-09-24 14:02:00,
2017-09-24 09:07:00,77.5,68.5,30.06,SSW,195,0.0,5.0,74,0.00,,,0.00,332.0,meteohub,2017-09-24 14:07:00,
2017-09-24 09:12:00,78.3,68.5,30.06,South,188,1.0,5.0,72,0.00,,,0.00,348.0,meteohub,2017-09-24 14:12:00,
2017-09-24 09:17:00,78.6,68.0,30.05,South,179,2.0,5.0,70,0.00,,,0.00,362.0,meteohub,2017-09-24 14:17:00,
2017-09-24 09:22:00,79.2,68.2,30.06,SSW,198,5.0,5.0,69,0.00,,,0.00,376.0,meteohub,2017-09-24 14:22:00,
2017-09-24 09:27:00,79.3,68.4,30.06,South,172,3.0,7.0,69,0.00,,,0.00,392.0,meteohub,2017-09-24 14:27:00,
2017-09-24 09:32:00,79.7,68.2,30.06,South,186,0.0,7.0,68,0.00,,,0.00,404.0,meteohub,2017-09-24 14:32:00,
2017-09-24 09:37:00,80.1,68.2,30.05,South,184,1.0,7.0,67,0.00,,,0.00,418.0,meteohub,2017-09-24 14:37:00,
2017-09-24 09:42:00,80.2,68.4,30.05,SSW,203,4.0,6.0,67,0.00,,,0.00,427.0,meteohub,2017-09-24 14:42:00,
2017-09-24 09:47:00,80.8,68.4,30.05,SSW,194,1.0,7.0,66,0.00,,,0.00,443.0,meteohub,2017-09-24 14:47:00,
2017-09-24 09:52:00,81.1,68.2,30.05,South,177,0.0,7.0,65,0.00,,,0.00,455.0,meteohub,2017-09-24 14:52:00,
2017-09-24 09:57:00,81.1,67.8,30.05,SSW,203,6.0,9.0,64,0.00,,,0.00,466.0,meteohub,2017-09-24 14:57:00,
2017-09-24 10:02:00,81.7,67.5,30.06,SW,233,2.0,9.0,62,0.00,,,0.00,476.0,meteohub,2017-09-24 15:02:00,
2017-09-24 10:07:00,82.0,67.6,30.06,South,174,4.0,9.0,62,0.00,,,0.00,492.0,meteohub,2017-09-24 15:07:00,
2017-09-24 10:12:00,82.4,67.6,30.06,South,190,6.0,9.0,61,0.00,,,0.00,501.0,meteohub,2017-09-24 15:12:00,
2017-09-24 10:17:00,82.9,68.2,30.05,SSW,196,2.0,7.0,61,0.00,,,0.00,510.0,meteohub,2017-09-24 15:17:00,
2017-09-24 10:22:00,83.1,68.4,30.05,South,182,2.0,7.0,61,0.00,,,0.00,520.0,meteohub,2017-09-24 15:22:00,
2017-09-24 10:27:00,83.3,68.0,30.05,South,187,4.0,7.0,60,0.00,,,0.00,531.0,meteohub,2017-09-24 15:27:00,
2017-09-24 10:32:00,83.3,67.5,30.05,SSE,166,4.0,7.0,59,0.00,,,0.00,545.0,meteohub,2017-09-24 15:32:00,
2017-09-24 10:37:00,83.8,67.5,30.05,South,172,2.0,8.0,58,0.00,,,0.00,550.0,meteohub,2017-09-24 15:37:00,
2017-09-24 10:42:00,84.0,67.6,30.05,South,172,1.0,8.0,58,0.00,,,0.00,561.0,meteohub,2017-09-24 15:42:00,
2017-09-24 10:47:00,84.4,66.9,30.05,SSW,199,4.0,8.0,56,0.00,,,0.00,566.0,meteohub,2017-09-24 15:47:00,
2017-09-24 10:52:00,84.0,66.6,30.05,SSW,201,2.0,10.0,56,0.00,,,0.00,580.0,meteohub,2017-09-24 15:52:00,
2017-09-24 10:57:00,83.8,66.4,30.05,SSW,203,2.0,10.0,56,0.00,,,0.00,591.0,meteohub,2017-09-24 15:57:00,
2017-09-24 11:02:00,84.4,66.9,30.05,SSE,155,4.0,10.0,56,0.00,,,0.00,606.0,meteohub,2017-09-24 16:02:00,
2017-09-24 11:07:00,84.4,66.4,30.05,South,183,4.0,12.0,55,0.00,,,0.00,615.0,meteohub,2017-09-24 16:07:00,
2017-09-24 11:12:00,85.3,66.7,30.05,SSW,193,4.0,12.0,54,0.00,,,0.00,621.0,meteohub,2017-09-24 16:12:00,
2017-09-24 11:17:00,85.1,67.1,30.04,SSE,166,0.0,11.0,55,0.00,,,0.00,631.0,meteohub,2017-09-24 16:17:00,
2017-09-24 11:22:00,85.8,66.7,30.04,SSW,201,7.0,9.0,53,0.00,,,0.00,638.0,meteohub,2017-09-24 16:22:00,
2017-09-24 11:27:00,85.5,66.9,30.04,South,179,2.0,9.0,54,0.00,,,0.00,635.0,meteohub,2017-09-24 16:27:00,
2017-09-24 11:32:00,85.6,67.1,30.04,East,85,2.0,9.0,54,0.00,,,0.00,643.0,meteohub,2017-09-24 16:32:00,
2017-09-24 11:37:00,85.6,67.1,30.04,South,187,1.0,9.0,54,0.00,,,0.00,654.0,meteohub,2017-09-24 16:37:00,
2017-09-24 11:42:00,86.5,68.0,30.04,SSW,199,1.0,11.0,54,0.00,,,0.00,664.0,meteohub,2017-09-24 16:42:00,
2017-09-24 11:47:00,86.7,66.9,30.04,SE,146,5.0,11.0,52,0.00,,,0.00,671.0,meteohub,2017-09-24 16:47:00,
2017-09-24 11:52:00,86.9,67.6,30.04,South,176,3.0,9.0,53,0.00,,,0.00,666.0,meteohub,2017-09-24 16:52:00,
2017-09-24 11:57:00,87.3,66.9,30.04,WSW,244,4.0,10.0,51,0.00,,,0.00,677.0,meteohub,2017-09-24 16:57:00,
2017-09-24 12:02:00,86.7,66.9,30.04,SSW,197,6.0,11.0,52,0.00,,,0.00,687.0,meteohub,2017-09-24 17:02:00,
2017-09-24 12:07:00,86.5,67.5,30.03,SSW,211,5.0,11.0,53,0.00,,,0.00,693.0,meteohub,2017-09-24 17:07:00,
2017-09-24 12:12:00,86.7,66.9,30.03,SW,232,4.0,11.0,52,0.00,,,0.00,693.0,meteohub,2017-09-24 17:12:00,
2017-09-24 12:17:00,86.9,67.1,30.03,South,190,2.0,11.0,52,0.00,,,0.00,696.0,meteohub,2017-09-24 17:17:00,
2017-09-24 12:22:00,87.1,67.3,30.03,WSW,257,2.0,11.0,52,0.00,,,0.00,691.0,meteohub,2017-09-24 17:22:00,
2017-09-24 12:27:00,87.1,66.7,30.03,SSW,193,6.0,11.0,51,0.00,,,0.00,703.0,meteohub,2017-09-24 17:27:00,
2017-09-24 12:32:00,87.1,67.3,30.03,SSE,161,2.0,11.0,52,0.00,,,0.00,707.0,meteohub,2017-09-24 17:32:00,
2017-09-24 12:37:00,87.8,67.5,30.03,South,188,4.0,11.0,51,0.00,,,0.00,710.0,meteohub,2017-09-24 17:37:00,
2017-09-24 12:42:00,88.0,66.4,30.02,SSW,207,4.0,11.0,49,0.00,,,0.00,712.0,meteohub,2017-09-24 17:42:00,
2017-09-24 12:47:00,87.8,66.9,30.02,SSW,199,8.0,9.0,50,0.00,,,0.00,710.0,meteohub,2017-09-24 17:47:00,
2017-09-24 12:52:00,87.6,67.3,30.02,South,186,1.0,11.0,51,0.00,,,0.00,712.0,meteohub,2017-09-24 17:52:00,
2017-09-24 12:57:00,87.4,65.8,30.02,SSW,203,6.0,12.0,49,0.00,,,0.00,721.0,meteohub,2017-09-24 17:57:00,
2017-09-24 13:02:00,87.6,65.5,30.02,SSW,194,5.0,12.0,48,0.00,,,0.00,701.0,meteohub,2017-09-24 18:02:00,
2017-09-24 13:07:00,88.7,67.6,30.01,SSW,201,4.0,12.0,50,0.00,,,0.00,708.0,meteohub,2017-09-24 18:07:00,
2017-09-24 13:12:00,88.5,66.4,30.01,South,184,2.0,11.0,48,0.00,,,0.00,721.0,meteohub,2017-09-24 18:12:00,
2017-09-24 13:17:00,88.0,65.8,30.01,South,178,5.0,12.0,48,0.00,,,0.00,696.0,meteohub,2017-09-24 18:17:00,
2017-09-24 13:22:00,87.4,65.3,30.01,SW,215,2.0,12.0,48,0.00,,,0.00,689.0,meteohub,2017-09-24 18:22:00,
2017-09-24 13:27:00,87.6,65.5,30.01,SSW,195,8.0,8.0,48,0.00,,,0.00,707.0,meteohub,2017-09-24 18:27:00,
2017-09-24 13:32:00,88.2,66.0,30.00,SSW,203,7.0,9.0,48,0.00,,,0.00,708.0,meteohub,2017-09-24 18:32:00,
2017-09-24 13:37:00,88.9,64.8,30.00,ESE,122,2.0,13.0,45,0.00,,,0.00,712.0,meteohub,2017-09-24 18:37:00,
2017-09-24 13:42:00,89.2,65.7,30.00,South,188,4.0,13.0,46,0.00,,,0.00,701.0,meteohub,2017-09-24 18:42:00,
2017-09-24 13:47:00,89.1,64.9,30.00,SSE,165,6.0,13.0,45,0.00,,,0.00,715.0,meteohub,2017-09-24 18:47:00,
2017-09-24 13:52:00,89.2,65.7,30.00,South,176,2.0,12.0,46,0.00,,,0.00,682.0,meteohub,2017-09-24 18:52:00,